| time (UTC) | temp F | wind direction | speed knots | gust knots | rain 1hr in | rain 24hr in | rain mn in | humidity % | barometer mb |
| 20260506144530 | 28 | 347 | 0.9 | 1.7 | 0.00 | 0.14 | 0.00 | 85 | 1020.7 |
| 20260506143027 | 28 | 348 | 0.9 | 2.6 | 0.00 | 0.14 | 0.00 | 88 | 1020.7 |
| 20260506141524 | 28 | 360 | 0.9 | 1.7 | 0.00 | 0.14 | 0.00 | 90 | 1020.7 |
| 20260506140027 | 26 | 360 | 0.9 | 2.6 | 0.00 | 0.14 | 0.00 | 91 | 1020.4 |
| 20260506134522 | 25 | 360 | 1.7 | 3.5 | 0.00 | 0.14 | 0.00 | 91 | 1020.4 |
| 20260506133028 | 25 | 360 | 0.9 | 5.2 | 0.00 | 0.14 | 0.00 | 91 | 1020.4 |
| 20260506131520 | 25 | 346 | 0.9 | 4.3 | 0.00 | 0.14 | 0.00 | 92 | 1020.0 |
| 20260506130015 | 25 | 355 | 0.9 | 2.6 | 0.00 | 0.14 | 0.00 | 92 | 1019.5 |
| 20260506124513 | 25 | 15 | 0.9 | 4.3 | 0.00 | 0.14 | 0.00 | 92 | 1019.2 |
| 20260506123009 | 25 | 12 | 0.9 | 3.5 | 0.00 | 0.14 | 0.00 | 92 | 1019.1 |
| 20260506121506 | 25 | 12 | 0.9 | 2.6 | 0.00 | 0.14 | 0.00 | 92 | 1018.7 |
| 20260506120006 | 25 | 12 | 0.0 | 1.7 | 0.00 | 0.14 | 0.00 | 92 | 1018.7 |
| 20260506114513 | 25 | 12 | 0.0 | 1.7 | 0.00 | 0.14 | 0.00 | 92 | 1018.6 |
| 20260506113002 | 25 | 12 | 0.0 | 3.5 | 0.00 | 0.14 | 0.00 | 92 | 1018.3 |
| 20260506111559 | 25 | 12 | 0.0 | 2.6 | 0.00 | 0.14 | 0.00 | 92 | 1018.1 |
| 20260506110058 | 25 | 12 | 0.0 | 1.7 | 0.00 | 0.14 | 0.00 | 92 | 1017.8 |
| 20260506104604 | 25 | 12 | 0.0 | 1.7 | 0.00 | 0.14 | 0.00 | 92 | 1017.9 |
| 20260506103055 | 25 | 12 | 0.0 | 1.7 | 0.00 | 0.14 | 0.00 | 92 | 1017.6 |
| 20260506101552 | 25 | 12 | 0.0 | 2.6 | 0.00 | 0.14 | 0.00 | 92 | 1017.6 |
| 20260506100105 | 25 | 24 | 0.0 | 0.9 | 0.00 | 0.14 | 0.00 | 92 | 1017.6 |
| 20260506094550 | 25 | 24 | 0.0 | 1.7 | 0.00 | 0.14 | 0.00 | 92 | 1017.5 |
| 20260506093047 | 26 | 24 | 0.0 | 1.7 | 0.00 | 0.14 | 0.00 | 92 | 1017.4 |
| 20260506091549 | 26 | 24 | 0.9 | 3.5 | 0.00 | 0.14 | 0.00 | 92 | 1017.4 |
| 20260506090042 | 26 | 25 | 0.9 | 2.6 | 0.00 | 0.14 | 0.00 | 92 | 1017.1 |
| 20260506084543 | 26 | 25 | 0.9 | 2.6 | 0.00 | 0.14 | 0.00 | 92 | 1017.2 |
| 20260506083040 | 26 | 25 | 0.0 | 1.7 | 0.00 | 0.14 | 0.00 | 92 | 1016.9 |
| 20260506081542 | 26 | 25 | 0.0 | 1.7 | 0.00 | 0.14 | 0.00 | 92 | 1017.1 |
| 20260506073034 | 27 | 22 | 0.0 | 1.7 | 0.00 | 0.16 | 0.00 | 93 | 1017.2 |
| 20260506071532 | 27 | 22 | 0.0 | 1.7 | 0.00 | 0.16 | 0.00 | 92 | 1016.9 |
| 20260506061524 | 27 | 22 | 0.0 | 1.7 | 0.00 | 0.19 | 0.00 | 92 | 1016.8 |
| 20260506044524 | 28 | 44 | 1.7 | 3.5 | 0.00 | 0.19 | 0.19 | 92 | 1015.2 |
| 20260506043010 | 28 | 43 | 0.0 | 2.6 | 0.00 | 0.19 | 0.19 | 91 | 1015.2 |
| 20260506041509 | 29 | 43 | 0.0 | 2.6 | 0.00 | 0.19 | 0.19 | 91 | 1015.1 |
| 20260506040008 | 29 | 43 | 0.0 | 1.7 | 0.00 | 0.19 | 0.19 | 91 | 1015.0 |
| 20260506034507 | 29 | 43 | 0.0 | 1.7 | 0.00 | 0.19 | 0.19 | 91 | 1014.6 |
| 20260506033005 | 29 | 43 | 0.0 | 0.9 | 0.00 | 0.19 | 0.19 | 91 | 1014.3 |
| 20260506031511 | 29 | 43 | 0.0 | 0.0 | 0.00 | 0.19 | 0.19 | 91 | 1014.0 |
| 20260506030120 | 28 | 43 | 0.0 | 0.0 | 0.00 | 0.19 | 0.19 | 90 | 1013.6 |
| 20260506024600 | 29 | 43 | 0.0 | 0.0 | 0.00 | 0.19 | 0.19 | 90 | 1013.4 |
| 20260506023055 | 29 | 43 | 0.0 | 0.9 | 0.00 | 0.19 | 0.19 | 90 | 1013.1 |
| 20260506021559 | 29 | 43 | 0.0 | 0.0 | 0.00 | 0.19 | 0.19 | 89 | 1012.6 |
| 20260506020051 | 29 | 43 | 0.0 | 0.0 | 0.00 | 0.19 | 0.19 | 89 | 1012.2 |
| 20260506014558 | 30 | 43 | 0.0 | 0.9 | 0.01 | 0.19 | 0.19 | 88 | 1012.1 |
| 20260506013054 | 30 | 43 | 0.0 | 0.9 | 0.01 | 0.19 | 0.19 | 88 | 1011.9 |
| 20260506011547 | 30 | 43 | 0.0 | 0.9 | 0.01 | 0.19 | 0.19 | 88 | 1011.6 |
| 20260506010052 | 30 | 43 | 0.0 | 0.9 | 0.02 | 0.19 | 0.19 | 87 | 1011.4 |
| 20260506004550 | 30 | 43 | 0.0 | 0.9 | 0.01 | 0.18 | 0.18 | 87 | 1011.3 |
| 20260506003043 | 30 | 43 | 0.0 | 1.7 | 0.02 | 0.18 | 0.18 | 87 | 1011.1 |
| 20260506001546 | 31 | 43 | 0.0 | 2.6 | 0.02 | 0.18 | 0.18 | 87 | 1011.0 |
| 20260506000040 | 31 | 43 | 0.0 | 1.7 | 0.01 | 0.17 | 0.17 | 88 | 1010.6 |
| 20260505234539 | 31 | 44 | 0.9 | 1.7 | 0.02 | 0.17 | 0.17 | 88 | 1010.5 |
| 20260505233038 | 30 | 44 | 0.9 | 1.7 | 0.01 | 0.16 | 0.16 | 89 | 1010.6 |
| 20260505231536 | 30 | 44 | 0.0 | 1.7 | 0.01 | 0.16 | 0.16 | 88 | 1010.3 |
| 20260505230045 | 30 | 44 | 0.0 | 2.6 | 0.02 | 0.16 | 0.16 | 89 | 1010.2 |
| 20260505224537 | 29 | 44 | 0.9 | 1.7 | 0.02 | 0.15 | 0.15 | 89 | 1010.1 |
| 20260505223035 | 29 | 44 | 0.9 | 2.6 | 0.02 | 0.15 | 0.15 | 88 | 1009.9 |
| 20260505221532 | 29 | 44 | 0.0 | 1.7 | 0.03 | 0.15 | 0.15 | 88 | 1009.8 |
| 20260505220037 | 30 | 44 | 0.0 | 2.6 | 0.03 | 0.14 | 0.14 | 87 | 1009.3 |
| 20260505214534 | 30 | 44 | 0.9 | 2.6 | 0.03 | 0.14 | 0.13 | 87 | 1009.6 |
| 20260505213030 | 30 | 43 | 0.0 | 1.7 | 0.04 | 0.14 | 0.13 | 88 | 1009.2 |
| 20260505211527 | 30 | 43 | 0.0 | 3.5 | 0.04 | 0.13 | 0.12 | 87 | 1009.3 |
| 20260505210025 | 30 | 43 | 0.9 | 3.5 | 0.04 | 0.12 | 0.11 | 88 | 1009.1 |
| 20260505204524 | 30 | 44 | 0.9 | 6.1 | 0.04 | 0.11 | 0.10 | 88 | 1009.1 |
| 20260505203026 | 30 | 21 | 1.7 | 7.0 | 0.03 | 0.10 | 0.09 | 87 | 1009.0 |
| 20260505201517 | 31 | 21 | 1.7 | 3.5 | 0.02 | 0.09 | 0.08 | 85 | 1009.0 |
| 20260505200016 | 32 | 19 | 1.7 | 4.3 | 0.01 | 0.08 | 0.07 | 86 | 1009.0 |
| 20260505194514 | 31 | 17 | 0.9 | 4.3 | 0.01 | 0.07 | 0.06 | 87 | 1008.9 |
| 20260505193012 | 31 | 16 | 0.9 | 4.3 | 0.01 | 0.07 | 0.06 | 88 | 1009.0 |
| 20260505191513 | 30 | 14 | 0.9 | 3.5 | 0.01 | 0.07 | 0.06 | 88 | 1009.0 |
| 20260505190016 | 31 | 5 | 1.7 | 7.0 | 0.01 | 0.07 | 0.06 | 87 | 1009.0 |
| 20260505184517 | 33 | 5 | 1.7 | 7.0 | 0.00 | 0.06 | 0.05 | 84 | 1008.8 |
| 20260505183006 | 35 | 74 | 0.9 | 4.3 | 0.00 | 0.06 | 0.05 | 87 | 1008.4 |
| 20260505181506 | 35 | 117 | 1.7 | 3.5 | 0.00 | 0.06 | 0.05 | 88 | 1008.3 |
| 20260505180008 | 34 | 360 | 0.0 | 2.6 | 0.00 | 0.06 | 0.05 | 90 | 1008.4 |
| 20260505174505 | 33 | 360 | 0.9 | 3.5 | 0.00 | 0.06 | 0.05 | 90 | 1008.2 |
| 20260505173005 | 33 | 360 | 0.0 | 2.6 | 0.00 | 0.06 | 0.05 | 90 | 1008.3 |
| 20260505171505 | 33 | 360 | 0.0 | 1.7 | 0.00 | 0.06 | 0.05 | 90 | 1008.4 |
| 20260505170002 | 33 | 360 | 0.0 | 1.7 | 0.00 | 0.06 | 0.05 | 90 | 1008.2 |
| 20260505164600 | 33 | 360 | 0.0 | 2.6 | 0.00 | 0.06 | 0.05 | 91 | 1008.0 |
| 20260505163058 | 32 | 119 | 0.0 | 3.5 | 0.00 | 0.06 | 0.05 | 91 | 1007.9 |
| 20260505161556 | 32 | 117 | 1.7 | 3.5 | 0.00 | 0.06 | 0.05 | 91 | 1007.7 |
| 20260505153049 | 33 | 32 | 0.0 | 0.0 | 0.00 | 0.06 | 0.05 | 92 | 1007.6 |
| 20260505151544 | 32 | 32 | 0.0 | 0.0 | 0.00 | 0.06 | 0.05 | 93 | 1007.5 |